Overview Statistics Trail Chart Weather Telemetry Raw packets
 

This is the latest recevied weather packets stored in our database for station/object KA1JKB. If no packets are shown the sender has not sent any weather packets the latest 10 day(s).

<< 93 94 95 96 97 98 99 >>
Time Temp. Humidity Pressure Rain* Wind** Luminosity Snow
1787752440 20.56° C 83% 1012.8 hPa 0 mm - 448 W/m² -
1787752137 20.56° C 83% 1012.8 hPa 0 mm - 333 W/m² -
1787751835 20° C 85% 1012.8 hPa 0 mm - 138 W/m² -
1787751530 19.44° C 85% 1012.9 hPa 0 mm - 126 W/m² -
1787751225 19.44° C 86% 1013.1 hPa 0 mm - 168 W/m² -
1787750921 19.44° C 86% 1013.3 hPa 0 mm - 289 W/m² -
1787750616 18.89° C 89% 1013.3 hPa 0 mm - 243 W/m² -
1787750311 17.78° C 93% 1013.2 hPa 0 mm - 162 W/m² -
1787750006 17.22° C 96% 1013 hPa 0 mm - 122 W/m² -
1787749703 16.67° C 99% 1013.2 hPa 0 mm - 129 W/m² -
1787749398 16.11° C 99% 1013.4 hPa 0 mm - 105 W/m² -
1787749097 16.11° C 99% 1013.3 hPa 0 mm - 116 W/m² -
1787748792 16.11° C 99% 1013.2 hPa 0 mm - 108 W/m² -
1787748492 16.11° C 99% 1013 hPa 0 mm - 121 W/m² -
1787748189 16.11° C 99% 1013.4 hPa 0 mm - 108 W/m² -
1787747888 15.56° C 99% 1013.5 hPa 0 mm - 93 W/m² -
1787747583 15.56° C 99% 1013.2 hPa 0 mm - 86 W/m² -
1787747283 15.56° C 99% 1013.4 hPa 0 mm - 92 W/m² -
1787746979 15° C 99% 1013.3 hPa 0 mm - 75 W/m² -
1787746675 14.44° C 99% 1013.5 hPa 0 mm - 59 W/m² -
1787746374 14.44° C 99% 1013.6 hPa 0 mm - 60 W/m² -
1787746072 13.89° C 99% 1013.6 hPa 0 mm - 48 W/m² -
1787745772 13.89° C 99% 1013.6 hPa 0 mm - 44 W/m² -
1787745470 13.33° C 99% 1013.6 hPa 0 mm - 43 W/m² -
1787745166 12.78° C 99% 1013.6 hPa 0 mm - 39 W/m² -

* Rain latest hour (hover to see other rain measurements)
** Current wind speed in m/s (hover to see current wind gust speed)